Voltar ao catálogo

ZORKIY-2M

AtivoMilitarSSO
NORAD 57177·PAYLOAD·🇷🇺 Russia
Este nome de satélite ainda não foi confirmado por fontes oficiais.

Lançado Jun 27, 2023 de Vostochny Cosmodrome

Loading…

Próximas Passagens (próximas 24 horas)

TLE

AtualizadoSource: Space-Track

Época: Sep 14, 2026, 22:08 UTC

1 57177U 23091M   26257.92236430  .00006081  00000-0  26973-3 0  9998
2 57177  97.4995 316.6215 0013613 156.8451 203.3401 15.21881227177645

Acompanhe ZORKIY-2M em tempo real com AllMySat

Download on the App Store